Time,TemperatureF,DewpointF,PressureIn,WindDirection,WindDirectionDegrees,WindSpeedMPH,WindSpeedGustMPH,Humidity,HourlyPrecipIn,Conditions,Clouds,dailyrainin,SoftwareType,DateUTC
2013-05-07 00:07:00,59.2,52.0,29.81,SW,218,0.0,4.0,78,0.00,,,0.00,weatherlink.com 1.10,2013-05-07 07:07:00,
2013-05-07 00:22:00,58.5,52.0,29.81,ESE,122,0.0,7.0,79,0.00,,,0.00,weatherlink.com 1.10,2013-05-07 07:22:00,
2013-05-07 00:37:00,57.4,52.0,29.82,SSW,208,0.0,3.0,81,0.00,,,0.00,weatherlink.com 1.10,2013-05-07 07:37:00,
2013-05-07 00:52:00,56.7,52.0,29.82,SW,215,1.0,3.0,83,0.00,,,0.00,weatherlink.com 1.10,2013-05-07 07:52:00,
2013-05-07 01:07:00,56.0,51.0,29.83,South,191,0.0,2.0,84,0.00,,,0.00,weatherlink.com 1.10,2013-05-07 08:07:00,
2013-05-07 01:23:00,55.2,51.0,29.83,SSW,200,0.0,0.0,85,0.00,,,0.00,weatherlink.com 1.10,2013-05-07 08:23:00,
2013-05-07 01:38:00,54.3,51.0,29.83,SSE,167,0.0,1.0,87,0.00,,,0.00,weatherlink.com 1.10,2013-05-07 08:38:00,
2013-05-07 01:53:00,54.0,51.0,29.83,SSW,212,0.0,2.0,89,0.00,,,0.00,weatherlink.com 1.10,2013-05-07 08:53:00,
2013-05-07 02:08:00,53.5,50.0,29.84,South,187,0.0,1.0,89,0.00,,,0.00,weatherlink.com 1.10,2013-05-07 09:08:00,
2013-05-07 02:23:00,53.1,50.0,29.84,SSW,204,0.0,3.0,90,0.00,,,0.00,weatherlink.com 1.10,2013-05-07 09:23:00,
2013-05-07 02:38:00,52.5,50.0,29.84,SW,223,0.0,2.0,91,0.00,,,0.00,weatherlink.com 1.10,2013-05-07 09:38:00,
2013-05-07 02:53:00,52.2,50.0,29.85,WNW,288,0.0,5.0,91,0.00,,,0.00,weatherlink.com 1.10,2013-05-07 09:53:00,
2013-05-07 03:08:00,51.8,50.0,29.85,SSE,160,0.0,5.0,92,0.00,,,0.00,weatherlink.com 1.10,2013-05-07 10:08:00,
2013-05-07 03:23:00,51.5,50.0,29.86,SE,139,0.0,2.0,93,0.00,,,0.00,weatherlink.com 1.10,2013-05-07 10:23:00,
2013-05-07 03:38:00,51.3,49.0,29.86,WSW,238,0.0,6.0,93,0.00,,,0.00,weatherlink.com 1.10,2013-05-07 10:38:00,
2013-05-07 03:53:00,51.0,49.0,29.87,SSW,197,2.0,5.0,93,0.00,,,0.00,weatherlink.com 1.10,2013-05-07 10:53:00,
2013-05-07 04:08:00,51.0,49.0,29.88,South,177,3.0,6.0,93,0.00,,,0.00,weatherlink.com 1.10,2013-05-07 11:08:00,
2013-05-07 04:23:00,51.0,49.0,29.88,SW,218,0.0,5.0,93,0.00,,,0.00,weatherlink.com 1.10,2013-05-07 11:23:00,
2013-05-07 04:38:00,51.2,49.0,29.89,West,281,1.0,7.0,92,0.00,,,0.00,weatherlink.com 1.10,2013-05-07 11:38:00,
2013-05-07 04:53:00,51.5,49.0,29.89,North,6,1.0,4.0,92,0.00,,,0.00,weatherlink.com 1.10,2013-05-07 11:53:00,
2013-05-07 05:08:00,51.7,50.0,29.90,East,93,0.0,4.0,92,0.00,,,0.00,weatherlink.com 1.10,2013-05-07 12:08:00,
2013-05-07 05:23:00,51.8,50.0,29.90,ENE,70,0.0,6.0,92,0.00,,,0.00,weatherlink.com 1.10,2013-05-07 12:23:00,
2013-05-07 05:38:00,51.8,50.0,29.91,South,181,2.0,3.0,92,0.00,,,0.00,weatherlink.com 1.10,2013-05-07 12:38:00,
2013-05-07 05:53:00,51.8,49.0,29.91,WSW,257,0.0,5.0,91,0.00,,,0.00,weatherlink.com 1.10,2013-05-07 12:53:00,
2013-05-07 06:08:00,51.9,49.0,29.91,West,281,3.0,10.0,91,0.00,,,0.00,weatherlink.com 1.10,2013-05-07 13:08:00,
2013-05-07 06:23:00,51.9,49.0,29.92,SW,224,0.0,6.0,91,0.00,,,0.00,weatherlink.com 1.10,2013-05-07 13:23:00,
2013-05-07 06:38:00,52.0,49.0,29.92,SW,232,0.0,5.0,90,0.00,,,0.00,weatherlink.com 1.10,2013-05-07 13:38:00,
2013-05-07 06:53:00,52.3,50.0,29.92,SE,136,0.0,5.0,90,0.00,,,0.00,weatherlink.com 1.10,2013-05-07 13:53:00,
2013-05-07 07:08:00,52.5,50.0,29.93,South,171,1.0,5.0,90,0.00,,,0.00,weatherlink.com 1.10,2013-05-07 14:08:00,
2013-05-07 07:23:00,52.7,50.0,29.93,SW,232,0.0,4.0,90,0.00,,,0.00,weatherlink.com 1.10,2013-05-07 14:23:00,
2013-05-07 07:38:00,53.1,50.0,29.93,ENE,73,0.0,3.0,89,0.00,,,0.00,weatherlink.com 1.10,2013-05-07 14:38:00,
2013-05-07 07:53:00,53.3,50.0,29.94,SW,219,0.0,2.0,88,0.00,,,0.00,weatherlink.com 1.10,2013-05-07 14:53:00,
2013-05-07 08:08:00,53.6,50.0,29.94,WSW,248,0.0,8.0,87,0.00,,,0.00,weatherlink.com 1.10,2013-05-07 15:08:00,
2013-05-07 08:23:00,53.9,50.0,29.94,SSE,148,0.0,3.0,87,0.00,,,0.00,weatherlink.com 1.10,2013-05-07 15:23:00,
2013-05-07 08:39:00,54.3,50.0,29.94,WNW,290,1.0,6.0,86,0.00,,,0.00,weatherlink.com 1.10,2013-05-07 15:39:00,
2013-05-07 08:54:00,54.7,51.0,29.95,ESE,120,0.0,3.0,86,0.00,,,0.00,weatherlink.com 1.10,2013-05-07 15:54:00,
2013-05-07 09:09:00,54.9,51.0,29.95,West,267,0.0,4.0,85,0.00,,,0.00,weatherlink.com 1.10,2013-05-07 16:09:00,
2013-05-07 09:24:00,55.6,51.0,29.95,WSW,242,1.0,6.0,83,0.00,,,0.00,weatherlink.com 1.10,2013-05-07 16:24:00,
2013-05-07 09:39:00,56.0,51.0,29.95,SSW,197,0.0,3.0,83,0.00,,,0.00,weatherlink.com 1.10,2013-05-07 16:39:00,
2013-05-07 09:54:00,56.3,51.0,29.95,South,185,2.0,7.0,81,0.00,,,0.00,weatherlink.com 1.10,2013-05-07 16:54:00,
2013-05-07 10:09:00,56.8,51.0,29.95,ENE,75,0.0,7.0,81,0.00,,,0.00,weatherlink.com 1.10,2013-05-07 17:09:00,
2013-05-07 10:24:00,57.6,51.0,29.95,WSW,250,1.0,5.0,79,0.00,,,0.00,weatherlink.com 1.10,2013-05-07 17:24:00,
2013-05-07 10:39:00,58.4,52.0,29.95,SSW,210,0.0,5.0,79,0.00,,,0.00,weatherlink.com 1.10,2013-05-07 17:39:00,
2013-05-07 10:54:00,59.1,52.0,29.95,SE,145,3.0,9.0,77,0.00,,,0.00,weatherlink.com 1.10,2013-05-07 17:54:00,
2013-05-07 11:09:00,59.2,52.0,29.95,SSW,203,0.0,6.0,77,0.00,,,0.00,weatherlink.com 1.10,2013-05-07 18:09:00,
2013-05-07 11:24:00,60.1,53.0,29.95,SSE,160,6.0,6.0,76,0.00,,,0.00,weatherlink.com 1.10,2013-05-07 18:24:00,
2013-05-07 11:39:00,61.3,53.0,29.95,SE,142,2.0,8.0,74,0.00,,,0.00,weatherlink.com 1.10,2013-05-07 18:39:00,
2013-05-07 11:54:00,62.5,53.0,29.95,South,169,2.0,8.0,72,0.00,,,0.00,weatherlink.com 1.10,2013-05-07 18:54:00,
2013-05-07 12:09:00,63.2,54.0,29.95,SSE,164,5.0,8.0,71,0.00,,,0.00,weatherlink.com 1.10,2013-05-07 19:09:00,
2013-05-07 12:24:00,63.7,53.0,29.95,West,278,1.0,10.0,68,0.00,,,0.00,weatherlink.com 1.10,2013-05-07 19:24:00,
2013-05-07 12:39:00,63.1,53.0,29.95,SSW,204,3.0,10.0,70,0.00,,,0.00,weatherlink.com 1.10,2013-05-07 19:39:00,
2013-05-07 12:54:00,64.1,54.0,29.94,SSW,192,1.0,9.0,70,0.00,,,0.00,weatherlink.com 1.10,2013-05-07 19:54:00,
2013-05-07 13:09:00,65.5,54.0,29.94,SSW,198,2.0,9.0,67,0.00,,,0.00,weatherlink.com 1.10,2013-05-07 20:09:00,
2013-05-07 13:24:00,65.5,54.0,29.94,South,190,2.0,12.0,67,0.00,,,0.00,weatherlink.com 1.10,2013-05-07 20:24:00,
2013-05-07 13:39:00,66.8,54.0,29.93,SE,138,1.0,9.0,63,0.00,,,0.00,weatherlink.com 1.10,2013-05-07 20:39:00,
2013-05-07 13:54:00,67.5,54.0,29.93,SE,143,7.0,10.0,62,0.00,,,0.00,weatherlink.com 1.10,2013-05-07 20:54:00,
2013-05-07 14:09:00,68.6,55.0,29.93,South,170,1.0,7.0,62,0.00,,,0.00,weatherlink.com 1.10,2013-05-07 21:09:00,
2013-05-07 14:24:00,69.2,55.0,29.93,SSE,150,5.0,11.0,60,0.00,,,0.00,weatherlink.com 1.10,2013-05-07 21:24:00,
2013-05-07 14:39:00,69.0,55.0,29.92,SE,131,3.0,9.0,62,0.00,,,0.00,weatherlink.com 1.10,2013-05-07 21:39:00,
2013-05-07 14:54:00,70.2,55.0,29.92,ESE,120,1.0,9.0,59,0.00,,,0.00,weatherlink.com 1.10,2013-05-07 21:54:00,
2013-05-07 15:09:00,71.6,55.0,29.92,SSE,166,1.0,7.0,56,0.00,,,0.00,weatherlink.com 1.10,2013-05-07 22:09:00,
2013-05-07 15:24:00,72.7,55.0,29.91,SSE,150,6.0,7.0,54,0.00,,,0.00,weatherlink.com 1.10,2013-05-07 22:24:00,
2013-05-07 15:39:00,72.3,55.0,29.91,SE,128,9.0,9.0,55,0.00,,,0.00,weatherlink.com 1.10,2013-05-07 22:39:00,
2013-05-07 15:54:00,72.8,55.0,29.91,ESE,108,2.0,7.0,54,0.00,,,0.00,weatherlink.com 1.10,2013-05-07 22:54:00,
2013-05-07 16:09:00,72.9,56.0,29.91,SSW,200,0.0,6.0,55,0.00,,,0.00,weatherlink.com 1.10,2013-05-07 23:09:00,
2013-05-07 16:24:00,73.9,56.0,29.90,SW,214,0.0,4.0,53,0.00,,,0.00,weatherlink.com 1.10,2013-05-07 23:24:00,
2013-05-07 16:39:00,73.4,55.0,29.90,SE,128,3.0,7.0,53,0.00,,,0.00,weatherlink.com 1.10,2013-05-07 23:39:00,
2013-05-07 16:55:00,74.1,56.0,29.90,SW,229,0.0,6.0,53,0.00,,,0.00,weatherlink.com 1.10,2013-05-07 23:55:00,
2013-05-07 17:10:00,74.1,56.0,29.90,SSE,151,2.0,6.0,53,0.00,,,0.00,weatherlink.com 1.10,2013-05-08 00:10:00,
2013-05-07 17:25:00,74.5,56.0,29.90,SSE,166,0.0,2.0,53,0.00,,,0.00,weatherlink.com 1.10,2013-05-08 00:25:00,
2013-05-07 17:40:00,74.5,56.0,29.90,SSE,160,0.0,4.0,52,0.00,,,0.00,weatherlink.com 1.10,2013-05-08 00:40:00,
2013-05-07 17:55:00,74.4,56.0,29.90,SSE,153,1.0,4.0,52,0.00,,,0.00,weatherlink.com 1.10,2013-05-08 00:55:00,
2013-05-07 18:10:00,73.7,55.0,29.90,West,274,0.0,4.0,52,0.00,,,0.00,weatherlink.com 1.10,2013-05-08 01:10:00,
2013-05-07 18:25:00,73.9,56.0,29.90,South,190,0.0,2.0,54,0.00,,,0.00,weatherlink.com 1.10,2013-05-08 01:25:00,
2013-05-07 18:40:00,71.4,55.0,29.90,SW,232,0.0,5.0,57,0.00,,,0.00,weatherlink.com 1.10,2013-05-08 01:40:00,
2013-05-07 18:55:00,69.7,55.0,29.90,SSE,153,0.0,6.0,60,0.00,,,0.00,weatherlink.com 1.10,2013-05-08 01:55:00,
2013-05-07 19:10:00,68.1,55.0,29.90,WSW,240,0.0,5.0,63,0.00,,,0.00,weatherlink.com 1.10,2013-05-08 02:10:00,
2013-05-07 19:25:00,66.9,55.0,29.90,SSW,207,0.0,3.0,65,0.00,,,0.00,weatherlink.com 1.10,2013-05-08 02:25:00,
2013-05-07 19:40:00,65.6,55.0,29.91,SSE,158,0.0,2.0,68,0.00,,,0.00,weatherlink.com 1.10,2013-05-08 02:40:00,
2013-05-07 19:55:00,64.4,54.0,29.91,West,260,0.0,2.0,70,0.00,,,0.00,weatherlink.com 1.10,2013-05-08 02:55:00,
2013-05-07 20:10:00,63.3,54.0,29.91,WNW,300,0.0,5.0,72,0.00,,,0.00,weatherlink.com 1.10,2013-05-08 03:10:00,
2013-05-07 20:25:00,62.2,53.0,29.92,SSE,163,2.0,3.0,73,0.00,,,0.00,weatherlink.com 1.10,2013-05-08 03:25:00,
2013-05-07 20:40:00,61.1,53.0,29.92,WSW,246,0.0,5.0,75,0.00,,,0.00,weatherlink.com 1.10,2013-05-08 03:40:00,
2013-05-07 20:55:00,60.2,53.0,29.93,SSW,205,0.0,0.0,77,0.00,,,0.00,weatherlink.com 1.10,2013-05-08 03:55:00,
2013-05-07 21:10:00,59.1,52.0,29.93,SSW,194,0.0,3.0,78,0.00,,,0.00,weatherlink.com 1.10,2013-05-08 04:10:00,
2013-05-07 21:25:00,58.3,52.0,29.94,SSW,201,0.0,1.0,80,0.00,,,0.00,weatherlink.com 1.10,2013-05-08 04:25:00,
2013-05-07 21:40:00,57.2,52.0,29.95,South,181,0.0,1.0,82,0.00,,,0.00,weatherlink.com 1.10,2013-05-08 04:40:00,
2013-05-07 21:55:00,56.6,52.0,29.95,West,267,0.0,3.0,83,0.00,,,0.00,weatherlink.com 1.10,2013-05-08 04:55:00,
2013-05-07 22:10:00,56.1,51.0,29.95,SSW,200,1.0,2.0,84,0.00,,,0.00,weatherlink.com 1.10,2013-05-08 05:10:00,
2013-05-07 22:25:00,55.5,51.0,29.96,SW,224,0.0,1.0,85,0.00,,,0.00,weatherlink.com 1.10,2013-05-08 05:25:00,
2013-05-07 22:40:00,54.9,51.0,29.96,WSW,239,0.0,1.0,86,0.00,,,0.00,weatherlink.com 1.10,2013-05-08 05:40:00,
2013-05-07 22:55:00,54.3,51.0,29.97,SSE,159,2.0,3.0,87,0.00,,,0.00,weatherlink.com 1.10,2013-05-08 05:55:00,
2013-05-07 23:10:00,53.7,50.0,29.97,South,186,0.0,7.0,88,0.00,,,0.00,weatherlink.com 1.10,2013-05-08 06:10:00,
2013-05-07 23:25:00,53.3,50.0,29.97,SSW,204,0.0,4.0,89,0.00,,,0.00,weatherlink.com 1.10,2013-05-08 06:25:00,
2013-05-07 23:40:00,52.9,50.0,29.98,SSE,163,0.0,1.0,89,0.00,,,0.00,weatherlink.com 1.10,2013-05-08 06:40:00,
2013-05-07 23:55:00,52.6,50.0,29.98,SSW,208,0.0,4.0,90,0.00,,,0.00,weatherlink.com 1.10,2013-05-08 06:55:00,